Location: ?
(35.3436°N, 139.3168°E)
Time: 10:33:45
(UTC+00:00)

X-37B - Pass Details

Date: 28 January 2021
Orbit: 383 x 391 km, 45.0° (Epoch: 10 February)

Event Time Altitude Azimuth Distance (km) Brightness Sun altitude
Rises 08:30:32 0° 304° (NW) 2,271 5.1 -5.4°
Reaches altitude 10° 08:33:13 10° 328° (NNW) 1,418 3.6 -6.0°
Maximum altitude 08:35:13 15° 7° (N) 1,143 2.7 -6.3°
Drops below altitude 10° 08:37:13 10° 46° (NE) 1,419 2.9 -6.7°
Enters shadow 08:37:48 - 54° (NE) 1,577 3.1 -6.8°
